Tracking 30922 objects as of 2-Jul-2025
HD Live streaming from Space Station
objects crossing your sky now

STARLINK-1601

Track STARLINK-1601 now!
10-day predictions
STARLINK-1601 is classified as:


NORAD ID: 46120
Int'l Code: 2020-057D
Perigee: 553.4 km
Apogee: 555.3 km
Inclination: 53.1 °
Period: 95.6 minutes
Semi major axis: 6925 km
RCS: Unknown
Launch date: August 18, 2020
Source: United States (US)
Launch site: AIR FORCE EASTERN TEST RANGE (AFETR)
Your satellite tracking list
Your tracking list is empty




NASA's NSSDC Master Catalog

Two Line Element Set (TLE):
1 46120U 20057D   25182.80951231  .00000909  00000-0  79926-4 0  9999
2 46120  53.0565   2.8636 0001410  94.4406 265.6744 15.06402715269537
Source of the keplerian elements: AFSPC